{"data":{"norad_id":55498,"epoch":"2026-05-24T19:27:00.904032Z","epoch_age_seconds":94632,"freshness":"FRESH","line1":"1 55498U 23015BB  26144.81042713  .00000129  00000+0  14218-4 0  9996","line2":"2 55498  43.0027 270.1158 0002054 277.9810  82.0809 15.27575971182230","mean_motion":15.27575971,"eccentricity":0.0002054,"inclination_deg":43.0027,"raan_deg":270.1158,"arg_perigee_deg":277.981,"mean_anomaly_deg":82.0809,"bstar":1.4218e-5,"rev_number":18223,"period_min":94.266997343335,"perigee_km":481.65187023946,"apogee_km":484.47045044373,"semimajor_km":6861.1981603416,"source":"CELESTRAK","updated_at":"2026-05-25T13:38:17.832149Z"}}